Location: Newark
(48.9320°N, 2.2664°E)
Time: 13:30:57
(UTC+00:00)

Vanguard 1 Rocket - Pass Details

Date: 22 February 2020
Orbit: 650 x 4227 km, 34.3° (Epoch: 30 March)

Event Time Altitude Azimuth Distance (km) Brightness Sun altitude
Rises 00:53:32 0° 209° (SSW) 5,332 - -50.2°
Reaches altitude 10° 01:00:52 10° 179° (S) 3,394 - -49.8°
Maximum altitude 01:02:50 11° 164° (SSE) 3,074 - -49.6°
Drops below altitude 10° 01:04:36 10° 150° (SSE) 2,937 - -49.5°
Sets 01:09:13 0° 113° (ESE) 3,386 - -49.2°
